sat.trackr.live / text

‹ back to catalog

FLOCK 4Q-27

NORAD 58282 · 2023-174AC

PAYLOAD ACTIVE UNKNOWN

§ Identity

Operator
Country
US
Launch date
2023-11-11
Launch site
AFWTR
Launch vehicle
Mass (kg)
RCS (m²)

Purposes: earth_obs

External: N2YO · Heavens-Above · Gunter

§ Orbital elements

Epoch: 2026-08-27T16:38:23.902080Z

Period
92.28 min
Inclination
97.3763°
Eccentricity
0.0004702
Mean motion
15.60463663 rev/d
Perigee alt
383.1 km
Apogee alt
389.5 km
Semi-major
6,764.5 km
B*
3.5301e-4
RAAN
332.8368°
Arg perigee
238.7449°
Mean anomaly
121.3348°
Rev number
15,688

§ Raw data

FLOCK 4Q-271 58282U 23174AC  26239.69333220  .00028979  00000+0  35301-3 0  99912 58282  97.3763 332.8368 0004702 238.7449 121.3348 15.60463663156885

JSON: /api/v1/satellites/58282 · /tle

For live sub-satellite position, see the globe view (requires WebGL).

§ Visibility from observer

Set your observer location to see the next 7 days of passes ≥ 10°. The values pass through the URL so the page stays shareable.

No JS? Fill the form by hand. The geolocation button needs JavaScript.